Weather History for Amarillo, TX

Change the Weather History Date:

Sunday, December 9, 2012

  Actual Average Record
Temperature  
Mean Temperature 38 °F 37 °F  
Max Temperature 54 °F 50 °F 80 °F (1996)
Min Temperature 22 °F 25 °F -4 °F (1978)
Degree Days  
Heating Degree Days 27 28  
Month to date heating degree days 130 239  
Since 1 July heating degree days 769 1083  
Cooling Degree Days 0 0  
Month to date cooling degree days 0 0  
Year to date cooling degree days 2011 1399  
Moisture  
Dew Point 17 °F    
Average Humidity 57    
Maximum Humidity 85    
Minimum Humidity 28    
Precipitation  
Precipitation T in 0.03 in 3.11 in (1943)
Month to date precipitation T 0.19  
Year to date precipitation 11.79 19.84  
Snow  
Snow 0.10 in 0.10 in 3.30 in (1898)
Month to date snowfall 0.1 1.1  
Since 1 July snowfall 0.1 3.8  
Snow Depth 0.00 in    
Sea Level Pressure  
Sea Level Pressure 30.02 in    
Wind  
Wind Speed 22 mph (North)    
Max Wind Speed 33 mph    
Max Gust Speed 40 mph    
Visibility 8 miles    
Events Snow    
T = Trace of Precipitation, MM = Missing Value Source: NWS Daily Summary

Daily Weather History Graph

Daily Weather History Graph

Search for Another Location

Airport:

Trip Planner

Search our weather history database for the weather conditions in past years. The results will help you decide how hot, cold, wet, or windy it might be!

Date:

Astronomy

Dec. 09, 2012 Rise Set
Actual Time 7:44 AM CST 5:34 PM CST
Civil Twilight 7:16 AM CST 6:02 PM CST
Nautical Twilight 6:44 AM CST 6:34 PM CST
Astronomical Twilight 6:13 AM CST 7:05 PM CST
Moon 3:26 AM CST (12/9) 2:37 PM CST (12/9)
Length of Visible Light 10h 46m
Length of Day
9h 50m
Waning Crescent, 18% of the Moon is Illuminated
Dec 9
Waning Crescent
Dec 13
New
Dec 19
First Quarter
Dec 28
Full
Jan 4
Last Quarter

Hourly Weather History & Observations

Time (CST) Temp. Windchill Dew Point Humidity Pressure Visibility Wind Dir Wind Speed Gust Speed Precip Events Conditions
12:53 AM 53.1 °F - 21.0 °F 29% 29.66 in 10.0 mi West 13.8 mph 24.2 mph N/A   Clear
1:53 AM 46.9 °F - 21.0 °F 36% 29.72 in 7.0 mi NNW 26.5 mph 32.2 mph N/A   Clear
2:12 AM 35.6 °F 23.2 °F 30.2 °F 81% 29.81 in 5.0 mi North 26.5 mph 40.3 mph N/A   Haze
2:21 AM 37.4 °F 25.6 °F 33.8 °F 87% 29.82 in 5.0 mi North 26.5 mph 35.7 mph N/A   Mostly Cloudy
2:53 AM 37.9 °F 27.9 °F 34.0 °F 86% 29.78 in 7.0 mi North 19.6 mph 28.8 mph N/A   Overcast
3:53 AM 37.0 °F 25.1 °F 33.1 °F 86% 29.81 in 6.0 mi North 26.5 mph 35.7 mph 0.01 in   Overcast
4:02 AM 37.4 °F 25.2 °F 30.2 °F 75% 29.86 in 8.0 mi North 28.8 mph 38.0 mph N/A   Overcast
4:15 AM 35.6 °F 22.7 °F 28.4 °F 75% 29.88 in 10.0 mi North 28.8 mph 36.8 mph N/A   Scattered Clouds
4:22 AM 35.6 °F 24.2 °F 28.4 °F 75% 29.88 in 10.0 mi North 21.9 mph 36.8 mph N/A   Mostly Cloudy
4:39 AM 33.8 °F 21.3 °F 26.6 °F 75% 29.88 in 10.0 mi North 24.2 mph 36.8 mph N/A   Scattered Clouds
4:53 AM 34.0 °F 21.8 °F 25.0 °F 70% 29.83 in 10.0 mi North 23.0 mph 32.2 mph N/A   Partly Cloudy
5:53 AM 32.0 °F 19.8 °F 21.0 °F 64% 29.89 in 10.0 mi North 20.7 mph 28.8 mph N/A   Clear
6:53 AM 30.0 °F 19.1 °F 19.0 °F 64% 29.96 in 10.0 mi North 15.0 mph - N/A   Clear
7:53 AM 30.0 °F 20.0 °F 17.1 °F 59% 29.99 in 10.0 mi North 12.7 mph - N/A   Clear
8:53 AM 32.0 °F 22.1 °F 19.0 °F 59% 30.01 in 10.0 mi North 13.8 mph - N/A   Clear
9:53 AM 35.1 °F 22.7 °F 18.0 °F 50% 30.04 in 10.0 mi NNE 25.3 mph 31.1 mph N/A   Clear
10:53 AM 37.9 °F 26.8 °F 16.0 °F 41% 30.04 in 10.0 mi North 24.2 mph 31.1 mph N/A   Clear
11:53 AM 39.0 °F 28.5 °F 15.1 °F 38% 30.03 in 10.0 mi North 23.0 mph 32.2 mph N/A   Clear
12:53 PM 39.9 °F 29.2 °F 10.9 °F 31% 30.01 in 10.0 mi NNE 25.3 mph 29.9 mph N/A   Clear
1:53 PM 37.9 °F 26.3 °F 10.0 °F 32% 30.01 in 10.0 mi North 26.5 mph 34.5 mph N/A   Clear
2:53 PM 37.9 °F 25.9 °F 12.0 °F 35% 30.03 in 10.0 mi North 28.8 mph 33.4 mph N/A   Clear
3:53 PM 34.0 °F 21.3 °F 8.1 °F 34% 30.06 in 10.0 mi North 25.3 mph 34.5 mph N/A   Clear
4:53 PM 30.9 °F 17.8 °F 5.0 °F 33% 30.10 in 10.0 mi North 23.0 mph 29.9 mph N/A   Clear
5:53 PM 28.9 °F 14.5 °F 6.1 °F 38% 30.13 in 10.0 mi North 25.3 mph 32.2 mph N/A   Mostly Cloudy
6:53 PM 28.0 °F 13.3 °F 6.1 °F 39% 30.19 in 10.0 mi North 25.3 mph 33.4 mph N/A   Overcast
7:53 PM 27.0 °F 11.3 °F 7.0 °F 43% 30.21 in 10.0 mi North 27.6 mph 36.8 mph N/A   Overcast
8:53 PM 27.0 °F 11.0 °F 5.0 °F 39% 30.22 in 10.0 mi North 28.8 mph 36.8 mph N/A   Overcast
9:21 PM 23.0 °F 6.6 °F 15.8 °F 74% 30.19 in 2.5 mi North 25.3 mph 36.8 mph 0.00 in Snow Light Snow
9:24 PM 23.0 °F 7.2 °F 15.8 °F 74% 30.19 in 1.8 mi North 23.0 mph 31.1 mph 0.00 in Snow Light Snow
9:36 PM 21.2 °F 4.2 °F 17.6 °F 86% 30.20 in 1.0 mi North 25.3 mph 31.1 mph 0.00 in Snow Light Snow
9:44 PM 21.2 °F 5.6 °F 17.6 °F 86% 30.21 in 2.0 mi North 20.7 mph 31.1 mph 0.00 in Snow Light Snow
9:53 PM 21.9 °F 6.9 °F 18.0 °F 85% 30.26 in 2.0 mi North 19.6 mph 26.5 mph 0.00 in Snow Light Snow
10:01 PM 21.2 °F 6.4 °F 17.6 °F 86% 30.20 in 3.0 mi North 18.4 mph - 0.00 in Snow Light Snow
10:53 PM 23.0 °F 9.6 °F 12.9 °F 65% 30.23 in 10.0 mi NNW 16.1 mph - 0.00 in   Clear
11:53 PM 21.9 °F 8.2 °F 7.0 °F 53% 30.25 in 10.0 mi North 16.1 mph - N/A   Mostly Cloudy